Eastern Oregon Regional At Pendleton Airport Pendleton US
ICAO: KPDT
IATA: PDT
Category: Medium
Scheduled Services: No

Elevation: 1497 ft
TransAlt. 18000 ft.

Airport Communications:
CHINOOK APP/DEP:133.15
ASOS:118.325
CTAF:119.7
GND:121.9
ARNG OPS:40.9
MC MINNVILLE RDO:122.2
PENDLETON TWR:119.7
UNICOM:122.95

KPDT Zoom In..

Runways:

(A) RW 07 length 6301 ft width 150 ft
---- / hdg 74

(B) RW 11 length 5581 ft width 100 ft
---- / hdg 112

(C) RW 16 length 4341 ft width 60 ft
---- / hdg 163

(D) RW 25 length 6301 ft width 150 ft
ILS 110.30 / hdg 254

(E) RW 29 length 5581 ft width 100 ft
---- / hdg 292

(F) RW 34 length 4341 ft width 60 ft
---- / hdg 343

Location; KPDT
Day. 21 / Time. 23.53 Zulu
* Altimeter: 30.26
* Temperature: 15° c. 59°f.
* Wind from: 270° Speed 15 kn with Gusts up to 21 kn.
Dewpoint: -11° c.
Visibility: 10 Statute Miles.
Clouds: Clear (automated report).

KPDT 212353Z 27015G21KT 10SM CLR 15/M11 A3026 RMK AO2 SLP241 T01501106 10172 20139 56008


Wind From 270°
Speed 15 kn.

  YouTube Music Video
 
jpsmedia.com for Web Design  worldairports.se 2018   terms of use